This is the latest recevied weather packets stored in our database for station/object N5RPG. If no packets are shown the sender has not sent any weather packets the latest 1 day(s).
| Time | Temp. | Humidity | Pressure | Rain* | Wind** | Luminosity | Snow |
|---|---|---|---|---|---|---|---|
| 1778025527 | 28.89° C | 69% | 1006.5 hPa | 0 mm | 0.45 m/s, 231° | 66 W/m² | - |
| 1778025225 | 28.89° C | 69% | 1006.8 hPa | 0 mm | 0 m/s | 77 W/m² | - |
| 1778024922 | 28.89° C | 68% | 1006.7 hPa | 0 mm | 0 m/s | 97 W/m² | - |
| 1778024620 | 28.89° C | 68% | 1006.8 hPa | 0 mm | 0.45 m/s, 185° | 129 W/m² | - |
| 1778024316 | 28.89° C | 68% | 1006.5 hPa | 0 mm | 1.34 m/s, 210° | 130 W/m² | - |
| 1778024014 | 28.89° C | 67% | 1006.6 hPa | 0 mm | 1.79 m/s, 126° | 135 W/m² | - |
| 1778023711 | 29.44° C | 66% | 1006.6 hPa | 0 mm | 0.89 m/s, 208° | 104 W/m² | - |
| 1778023409 | 29.44° C | 66% | 1006.4 hPa | 0 mm | 0.89 m/s, 145° | 125 W/m² | - |
| 1778023105 | 30° C | 65% | 1006.3 hPa | 0 mm | 1.79 m/s, 169° | 240 W/m² | - |
| 1778022804 | 29.44° C | 66% | 1006.5 hPa | 0 mm | 0 m/s | 235 W/m² | - |
| 1778022501 | 30° C | 65% | 1006.3 hPa | 0 mm | 0.45 m/s, 260° | 218 W/m² | - |
| 1778022198 | 29.44° C | 66% | 1006.3 hPa | 0 mm | 0.89 m/s, 276° | 228 W/m² | - |
| 1778021895 | 29.44° C | 66% | 1006.3 hPa | 0 mm | 0.89 m/s, 179° | 192 W/m² | - |
| 1778021592 | 30° C | 63% | 1006.2 hPa | 0 mm | 2.68 m/s, 129° | 65 W/m² | - |
| 1778021287 | 30.56° C | 63% | 1006.2 hPa | 0 mm | 1.34 m/s, 239° | 301 W/m² | - |
| 1778020985 | 30.56° C | 63% | 1006.1 hPa | 0 mm | 0.89 m/s, 113° | 277 W/m² | - |
| 1778020682 | 30.56° C | 62% | 1006.1 hPa | 0 mm | 1.79 m/s, 144° | 403 W/m² | - |
| 1778020379 | 30.56° C | 63% | 1006.3 hPa | 0 mm | 0 m/s | 291 W/m² | - |
| 1778020075 | 30.56° C | 62% | 1006.2 hPa | 0 mm | 0.89 m/s, 214° | 168 W/m² | - |
| 1778019771 | 30.56° C | 62% | 1006.3 hPa | 0 mm | 1.34 m/s, 207° | 441 W/m² | - |
| 1778019468 | 30° C | 61% | 1006.5 hPa | 0 mm | 2.68 m/s, 264° | 510 W/m² | - |
| 1778019165 | 30° C | 62% | 1006.4 hPa | 0 mm | 1.79 m/s, 210° | 378 W/m² | - |
| 1778018861 | 30° C | 62% | 1006.3 hPa | 0 mm | 2.68 m/s, 217° | 433 W/m² | - |
| 1778018559 | 30° C | 62% | 1006.5 hPa | 0 mm | 1.79 m/s, 207° | 321 W/m² | - |
| 1778018257 | 31.11° C | 62% | 1006.5 hPa | 0 mm | 2.24 m/s, 224° | 401 W/m² | - |
* Rain latest hour (hover to see other rain measurements)
** Current wind speed in m/s (hover to see current wind gust speed)